Time,TemperatureF,DewpointF,PressureIn,WindDirection,WindDirectionDegrees,WindSpeedMPH,WindSpeedGustMPH,Humidity,HourlyPrecipIn,Conditions,Clouds,dailyrainin,SoftwareType,DateUTC
2013-08-05 00:04:00,82.0,68.6,29.93,SSE,161,3.0,3.0,64,0.00,,,0.00,Wunderground v.1.15,2013-08-05 05:04:00,
2013-08-05 00:10:00,81.8,68.4,29.93,SSE,161,2.0,2.0,64,0.00,,,0.00,Wunderground v.1.15,2013-08-05 05:10:00,
2013-08-05 00:20:00,81.4,68.5,29.94,SSE,161,2.0,3.0,65,0.00,,,0.00,Wunderground v.1.15,2013-08-05 05:20:00,
2013-08-05 00:25:00,81.2,68.3,29.94,SSE,158,3.0,3.0,65,0.00,,,0.00,Wunderground v.1.15,2013-08-05 05:25:00,
2013-08-05 00:35:00,81.1,68.2,29.94,SSE,158,1.0,2.0,65,0.00,,,0.00,Wunderground v.1.15,2013-08-05 05:35:00,
2013-08-05 00:40:00,80.9,68.0,29.94,SSE,158,2.0,3.0,65,0.00,,,0.00,Wunderground v.1.15,2013-08-05 05:40:00,
2013-08-05 00:50:00,80.5,67.6,29.94,SSE,160,2.0,2.0,65,0.00,,,0.00,Wunderground v.1.15,2013-08-05 05:50:00,
2013-08-05 00:55:00,80.3,67.5,29.94,SSE,160,2.0,2.0,65,0.00,,,0.00,Wunderground v.1.15,2013-08-05 05:55:00,
2013-08-05 01:05:00,80.1,67.7,29.94,SSE,160,0.0,1.0,66,0.00,,,0.00,Wunderground v.1.15,2013-08-05 06:05:00,
2013-08-05 01:10:00,79.8,67.9,29.94,SSE,160,0.0,0.0,67,0.00,,,0.00,Wunderground v.1.15,2013-08-05 06:10:00,
2013-08-05 01:20:00,79.4,67.9,29.94,SSE,160,0.0,0.0,68,0.00,,,0.00,Wunderground v.1.15,2013-08-05 06:20:00,
2013-08-05 01:25:00,79.2,67.7,29.94,SSE,160,1.0,2.0,68,0.00,,,0.00,Wunderground v.1.15,2013-08-05 06:25:00,
2013-08-05 01:34:00,78.6,67.6,29.94,SSE,160,1.0,4.0,69,0.00,,,0.00,Wunderground v.1.15,2013-08-05 06:34:00,
2013-08-05 01:40:00,78.5,67.9,29.94,SSE,160,0.0,0.0,70,0.00,,,0.00,Wunderground v.1.15,2013-08-05 06:40:00,
2013-08-05 01:50:00,78.1,67.5,29.93,SSE,160,1.0,3.0,70,0.00,,,0.00,Wunderground v.1.15,2013-08-05 06:50:00,
2013-08-05 01:55:00,77.9,66.5,29.94,SSE,160,2.0,3.0,68,0.00,,,0.00,Wunderground v.1.15,2013-08-05 06:55:00,
2013-08-05 02:05:00,77.7,65.9,29.94,SSE,160,2.0,3.0,67,0.00,,,0.00,Wunderground v.1.15,2013-08-05 07:05:00,
2013-08-05 02:10:00,77.7,65.4,29.93,SSE,160,1.0,1.0,66,0.00,,,0.00,Wunderground v.1.15,2013-08-05 07:10:00,
2013-08-05 02:20:00,77.4,65.1,29.94,SSE,160,1.0,3.0,66,0.00,,,0.00,Wunderground v.1.15,2013-08-05 07:20:00,
2013-08-05 02:25:00,77.4,65.1,29.93,SSE,160,1.0,3.0,66,0.00,,,0.00,Wunderground v.1.15,2013-08-05 07:25:00,
2013-08-05 02:35:00,77.2,65.4,29.93,SSE,160,1.0,5.0,67,0.00,,,0.00,Wunderground v.1.15,2013-08-05 07:35:00,
2013-08-05 02:40:00,77.0,65.2,29.93,SSE,160,1.0,1.0,67,0.00,,,0.00,Wunderground v.1.15,2013-08-05 07:40:00,
2013-08-05 02:50:00,76.7,65.3,29.93,SSE,160,1.0,1.0,68,0.00,,,0.00,Wunderground v.1.15,2013-08-05 07:50:00,
2013-08-05 02:55:00,76.5,65.6,29.93,SSE,160,0.0,1.0,69,0.00,,,0.00,Wunderground v.1.15,2013-08-05 07:55:00,
2013-08-05 03:05:00,76.1,66.0,29.93,SSE,160,1.0,5.0,71,0.00,,,0.00,Wunderground v.1.15,2013-08-05 08:05:00,
2013-08-05 03:10:00,76.0,65.9,29.93,SSE,160,1.0,1.0,71,0.00,,,0.00,Wunderground v.1.15,2013-08-05 08:10:00,
2013-08-05 03:20:00,75.6,65.9,29.94,SSE,160,1.0,1.0,72,0.00,,,0.00,Wunderground v.1.15,2013-08-05 08:20:00,
2013-08-05 03:25:00,75.6,65.9,29.94,SSE,160,0.0,1.0,72,0.00,,,0.00,Wunderground v.1.15,2013-08-05 08:25:00,
2013-08-05 03:35:00,75.3,66.0,29.94,SSE,160,1.0,2.0,73,0.00,,,0.00,Wunderground v.1.15,2013-08-05 08:35:00,
2013-08-05 03:40:00,75.1,66.2,29.94,SSE,160,1.0,1.0,74,0.00,,,0.00,Wunderground v.1.15,2013-08-05 08:40:00,
2013-08-05 03:50:00,74.9,66.1,29.94,SSE,160,0.0,0.0,74,0.00,,,0.00,Wunderground v.1.15,2013-08-05 08:50:00,
2013-08-05 03:55:00,74.9,66.4,29.94,SSE,160,1.0,2.0,75,0.00,,,0.00,Wunderground v.1.15,2013-08-05 08:55:00,
2013-08-05 04:05:00,74.6,66.5,29.94,SSE,160,0.0,1.0,76,0.00,,,0.00,Wunderground v.1.15,2013-08-05 09:05:00,
2013-08-05 04:10:00,74.6,66.5,29.94,SSE,160,0.0,0.0,76,0.00,,,0.00,Wunderground v.1.15,2013-08-05 09:10:00,
2013-08-05 04:20:00,74.4,66.7,29.94,SSE,160,0.0,0.0,77,0.00,,,0.00,Wunderground v.1.15,2013-08-05 09:20:00,
2013-08-05 04:25:00,74.2,66.5,29.94,SSE,160,0.0,0.0,77,0.00,,,0.00,Wunderground v.1.15,2013-08-05 09:25:00,
2013-08-05 04:40:00,73.9,67.0,29.94,SSE,160,0.0,0.0,79,0.00,,,0.00,Wunderground v.1.15,2013-08-05 09:40:00,
2013-08-05 04:50:00,73.7,67.1,29.94,SSE,160,0.0,0.0,80,0.00,,,0.00,Wunderground v.1.15,2013-08-05 09:50:00,
2013-08-05 04:55:00,73.7,67.5,29.94,SSE,160,1.0,2.0,81,0.00,,,0.00,Wunderground v.1.15,2013-08-05 09:55:00,
2013-08-05 05:05:00,73.7,67.5,29.94,SSE,160,1.0,1.0,81,0.00,,,0.00,Wunderground v.1.15,2013-08-05 10:05:00,
2013-08-05 05:10:00,73.5,67.7,29.94,SSE,160,1.0,1.0,82,0.00,,,0.00,Wunderground v.1.15,2013-08-05 10:10:00,
2013-08-05 05:20:00,73.5,67.7,29.94,SSE,160,0.0,0.0,82,0.00,,,0.00,Wunderground v.1.15,2013-08-05 10:20:00,
2013-08-05 05:30:00,73.3,67.8,29.94,SSE,160,1.0,1.0,83,0.00,,,0.00,Wunderground v.1.15,2013-08-05 10:30:00,
2013-08-05 05:40:00,73.2,68.1,29.94,SSE,160,1.0,7.0,84,0.00,,,0.00,Wunderground v.1.15,2013-08-05 10:40:00,
2013-08-05 05:50:00,73.0,67.9,29.94,SSE,160,1.0,3.0,84,0.00,,,0.00,Wunderground v.1.15,2013-08-05 10:50:00,
2013-08-05 05:55:00,73.0,68.2,29.94,SSE,160,0.0,3.0,85,0.00,,,0.00,Wunderground v.1.15,2013-08-05 10:55:00,
2013-08-05 06:05:00,72.8,68.0,29.94,SSE,160,1.0,4.0,85,0.00,,,0.00,Wunderground v.1.15,2013-08-05 11:05:00,
2013-08-05 06:15:00,72.8,68.0,29.94,SSE,160,0.0,4.0,85,0.00,,,0.00,Wunderground v.1.15,2013-08-05 11:15:00,
2013-08-05 06:20:00,72.7,68.3,29.95,SSE,160,1.0,1.0,86,0.00,,,0.00,Wunderground v.1.15,2013-08-05 11:20:00,
2013-08-05 06:25:00,72.7,68.3,29.94,SSE,160,1.0,4.0,86,0.00,,,0.00,Wunderground v.1.15,2013-08-05 11:25:00,
2013-08-05 06:40:00,72.7,68.6,29.94,SSE,161,2.0,8.0,87,0.00,,,0.00,Wunderground v.1.15,2013-08-05 11:40:00,
2013-08-05 06:50:00,72.7,68.6,29.94,SSE,161,3.0,3.0,87,0.00,,,0.00,Wunderground v.1.15,2013-08-05 11:50:00,
2013-08-05 06:55:00,72.8,69.0,29.94,SSE,161,4.0,4.0,88,0.00,,,0.00,Wunderground v.1.15,2013-08-05 11:55:00,
2013-08-05 07:05:00,72.8,69.0,29.95,SSE,161,3.0,5.0,88,0.00,,,0.00,Wunderground v.1.15,2013-08-05 12:05:00,
2013-08-05 07:10:00,72.8,69.0,29.95,SSE,161,3.0,5.0,88,0.00,,,0.00,Wunderground v.1.15,2013-08-05 12:10:00,
2013-08-05 07:20:00,73.0,69.2,29.95,SSE,161,3.0,3.0,88,0.00,,,0.00,Wunderground v.1.15,2013-08-05 12:20:00,
2013-08-05 07:25:00,73.0,69.2,29.95,SSE,161,3.0,3.0,88,0.00,,,0.00,Wunderground v.1.15,2013-08-05 12:25:00,
2013-08-05 07:35:00,73.3,69.5,29.96,SSE,161,3.0,3.0,88,0.00,,,0.00,Wunderground v.1.15,2013-08-05 12:35:00,
2013-08-05 07:40:00,73.5,69.7,29.96,SSE,161,2.0,5.0,88,0.00,,,0.00,Wunderground v.1.15,2013-08-05 12:40:00,
2013-08-05 07:55:00,74.0,69.5,29.96,SSE,161,2.0,4.0,86,0.00,,,0.00,Wunderground v.1.15,2013-08-05 12:55:00,
2013-08-05 08:05:00,74.6,70.1,29.96,SSE,161,2.0,6.0,86,0.00,,,0.00,Wunderground v.1.15,2013-08-05 13:05:00,
2013-08-05 08:10:00,74.9,70.1,29.96,SSE,161,3.0,5.0,85,0.00,,,0.00,Wunderground v.1.15,2013-08-05 13:10:00,
2013-08-05 08:19:00,75.3,70.1,29.97,SSE,162,3.0,8.0,84,0.00,,,0.00,Wunderground v.1.15,2013-08-05 13:19:00,
2013-08-05 08:25:00,75.6,70.1,29.96,SSE,168,4.0,13.0,83,0.00,,,0.00,Wunderground v.1.15,2013-08-05 13:25:00,
2013-08-05 08:35:00,76.1,70.2,29.96,SSE,168,5.0,5.0,82,0.00,,,0.00,Wunderground v.1.15,2013-08-05 13:35:00,
2013-08-05 08:40:00,76.7,70.4,29.97,SSE,168,3.0,3.0,81,0.00,,,0.00,Wunderground v.1.15,2013-08-05 13:40:00,
2013-08-05 08:50:00,77.7,70.3,29.96,South,171,4.0,7.0,78,0.00,,,0.00,Wunderground v.1.15,2013-08-05 13:50:00,
2013-08-05 08:55:00,78.5,70.7,29.96,South,171,4.0,7.0,77,0.00,,,0.00,Wunderground v.1.15,2013-08-05 13:55:00,
2013-08-05 09:05:00,79.6,70.6,29.96,South,175,4.0,7.0,74,0.00,,,0.00,Wunderground v.1.15,2013-08-05 14:05:00,
2013-08-05 09:10:00,79.8,70.4,29.96,South,175,4.0,5.0,73,0.00,,,0.00,Wunderground v.1.15,2013-08-05 14:10:00,
2013-08-05 09:20:00,80.7,70.4,29.96,South,175,4.0,8.0,71,0.00,,,0.00,Wunderground v.1.15,2013-08-05 14:20:00,
2013-08-05 09:25:00,81.1,70.8,29.96,South,175,3.0,8.0,71,0.00,,,0.00,Wunderground v.1.15,2013-08-05 14:25:00,
2013-08-05 09:35:00,82.2,70.6,29.96,South,176,2.0,4.0,68,0.00,,,0.00,Wunderground v.1.15,2013-08-05 14:35:00,
2013-08-05 09:40:00,82.6,70.1,29.96,South,181,3.0,3.0,66,0.00,,,0.00,Wunderground v.1.15,2013-08-05 14:40:00,
2013-08-05 09:50:00,82.8,70.7,29.95,South,188,6.0,7.0,67,0.00,,,0.00,Wunderground v.1.15,2013-08-05 14:50:00,
2013-08-05 09:55:00,83.0,70.5,29.95,South,188,4.0,7.0,66,0.00,,,0.00,Wunderground v.1.15,2013-08-05 14:55:00,
2013-08-05 10:05:00,83.8,69.9,29.96,South,185,4.0,4.0,63,0.00,,,0.00,Wunderground v.1.15,2013-08-05 15:05:00,
2013-08-05 10:10:00,84.1,70.1,29.96,South,182,3.0,10.0,63,0.00,,,0.00,Wunderground v.1.15,2013-08-05 15:10:00,
2013-08-05 10:25:00,85.3,69.8,29.96,South,181,2.0,4.0,60,0.00,,,0.00,Wunderground v.1.15,2013-08-05 15:25:00,
2013-08-05 10:35:00,85.9,70.4,29.95,South,182,3.0,3.0,60,0.00,,,0.00,Wunderground v.1.15,2013-08-05 15:35:00,
2013-08-05 10:50:00,87.0,69.4,29.95,South,184,3.0,3.0,56,0.00,,,0.00,Wunderground v.1.15,2013-08-05 15:50:00,
2013-08-05 10:55:00,87.6,70.0,29.95,South,184,3.0,3.0,56,0.00,,,0.00,Wunderground v.1.15,2013-08-05 15:55:00,
2013-08-05 11:05:00,88.4,70.2,29.95,South,185,2.0,3.0,55,0.00,,,0.00,Wunderground v.1.15,2013-08-05 16:05:00,
2013-08-05 11:10:00,88.8,69.5,29.95,South,188,3.0,3.0,53,0.00,,,0.00,Wunderground v.1.15,2013-08-05 16:10:00,
2013-08-05 11:20:00,89.3,69.9,29.95,South,188,2.0,2.0,53,0.00,,,0.00,Wunderground v.1.15,2013-08-05 16:20:00,
2013-08-05 11:25:00,89.7,69.7,29.95,South,189,2.0,2.0,52,0.00,,,0.00,Wunderground v.1.15,2013-08-05 16:25:00,
2013-08-05 11:35:00,90.5,69.9,29.95,South,189,2.0,2.0,51,0.00,,,0.00,Wunderground v.1.15,2013-08-05 16:35:00,
2013-08-05 11:40:00,90.7,70.1,29.95,SSW,192,2.0,12.0,51,0.00,,,0.00,Wunderground v.1.15,2013-08-05 16:40:00,
2013-08-05 11:50:00,91.2,68.8,29.94,SSW,192,3.0,3.0,48,0.00,,,0.00,Wunderground v.1.15,2013-08-05 16:50:00,
2013-08-05 11:55:00,91.6,69.1,29.93,SSW,193,2.0,3.0,48,0.00,,,0.00,Wunderground v.1.15,2013-08-05 16:55:00,
2013-08-05 12:05:00,92.1,69.6,29.93,SSW,193,2.0,5.0,48,0.00,,,0.00,Wunderground v.1.15,2013-08-05 17:05:00,
2013-08-05 12:10:00,92.5,68.1,29.93,SSW,193,2.0,2.0,45,0.00,,,0.00,Wunderground v.1.15,2013-08-05 17:10:00,
2013-08-05 12:20:00,93.2,68.7,29.93,SSW,195,3.0,3.0,45,0.00,,,0.00,Wunderground v.1.15,2013-08-05 17:20:00,
2013-08-05 12:25:00,93.4,68.2,29.93,SSW,195,1.0,3.0,44,0.00,,,0.00,Wunderground v.1.15,2013-08-05 17:25:00,
2013-08-05 12:35:00,94.3,67.0,29.92,South,189,2.0,7.0,41,0.00,,,0.00,Wunderground v.1.15,2013-08-05 17:35:00,
2013-08-05 12:40:00,94.0,66.7,29.92,South,182,2.0,2.0,41,0.00,,,0.00,Wunderground v.1.15,2013-08-05 17:40:00,
2013-08-05 12:49:00,94.5,65.0,29.92,South,188,2.0,12.0,38,0.00,,,0.00,Wunderground v.1.15,2013-08-05 17:49:00,
2013-08-05 12:55:00,94.9,66.1,29.92,South,188,2.0,12.0,39,0.00,,,0.00,Wunderground v.1.15,2013-08-05 17:55:00,
2013-08-05 13:05:00,95.9,65.4,29.91,South,189,2.0,10.0,37,0.00,,,0.00,Wunderground v.1.15,2013-08-05 18:05:00,
2013-08-05 13:10:00,95.9,64.7,29.91,South,191,3.0,3.0,36,0.00,,,0.00,Wunderground v.1.15,2013-08-05 18:10:00,
2013-08-05 13:20:00,95.9,64.7,29.90,South,189,3.0,3.0,36,0.00,,,0.00,Wunderground v.1.15,2013-08-05 18:20:00,
2013-08-05 13:25:00,96.3,65.8,29.91,SSW,192,2.0,3.0,37,0.00,,,0.00,Wunderground v.1.15,2013-08-05 18:25:00,
2013-08-05 13:35:00,97.1,64.9,29.90,SSW,192,3.0,3.0,35,0.00,,,0.00,Wunderground v.1.15,2013-08-05 18:35:00,
2013-08-05 13:40:00,97.3,65.1,29.90,South,178,2.0,2.0,35,0.00,,,0.00,Wunderground v.1.15,2013-08-05 18:40:00,
2013-08-05 13:55:00,97.8,65.5,29.89,South,178,1.0,2.0,35,0.00,,,0.00,Wunderground v.1.15,2013-08-05 18:55:00,
2013-08-05 14:05:00,97.8,66.3,29.89,South,175,1.0,1.0,36,0.00,,,0.00,Wunderground v.1.15,2013-08-05 19:05:00,
2013-08-05 14:10:00,97.8,67.1,29.89,South,176,2.0,2.0,37,0.00,,,0.00,Wunderground v.1.15,2013-08-05 19:10:00,
2013-08-05 14:20:00,98.0,65.7,29.89,SSE,162,2.0,2.0,35,0.00,,,0.00,Wunderground v.1.15,2013-08-05 19:20:00,
2013-08-05 14:25:00,98.0,64.0,29.88,SSE,161,2.0,2.0,33,0.00,,,0.00,Wunderground v.1.15,2013-08-05 19:25:00,
2013-08-05 14:35:00,98.5,66.1,29.88,SSE,155,2.0,2.0,35,0.00,,,0.00,Wunderground v.1.15,2013-08-05 19:35:00,
2013-08-05 14:40:00,98.7,62.8,29.88,SSE,155,1.0,1.0,31,0.00,,,0.00,Wunderground v.1.15,2013-08-05 19:40:00,
2013-08-05 14:55:00,99.0,62.1,29.87,SSE,154,1.0,2.0,30,0.00,,,0.00,Wunderground v.1.15,2013-08-05 19:55:00,
2013-08-05 15:10:00,99.2,63.3,29.87,SSE,157,3.0,5.0,31,0.00,,,0.00,Wunderground v.1.15,2013-08-05 20:10:00,
2013-08-05 15:20:00,99.4,62.5,29.86,SSE,154,2.0,2.0,30,0.00,,,0.00,Wunderground v.1.15,2013-08-05 20:20:00,
2013-08-05 15:30:00,100.2,64.1,29.86,SSE,157,1.0,2.0,31,0.00,,,0.00,Wunderground v.1.15,2013-08-05 20:30:00,
2013-08-05 15:40:00,99.9,61.0,29.85,SSE,165,3.0,3.0,28,0.00,,,0.00,Wunderground v.1.15,2013-08-05 20:40:00,
2013-08-05 15:50:00,100.2,62.2,29.85,SSE,165,0.0,2.0,29,0.00,,,0.00,Wunderground v.1.15,2013-08-05 20:50:00,
2013-08-05 16:00:00,100.7,61.6,29.84,SSE,167,1.0,2.0,28,0.00,,,0.00,Wunderground v.1.15,2013-08-05 21:00:00,
2013-08-05 16:05:00,100.7,60.6,29.84,SSE,168,3.0,5.0,27,0.00,,,0.00,Wunderground v.1.15,2013-08-05 21:05:00,
2013-08-05 16:10:00,100.4,61.4,29.84,SSE,168,3.0,6.0,28,0.00,,,0.00,Wunderground v.1.15,2013-08-05 21:10:00,
2013-08-05 16:20:00,99.9,61.0,29.83,SSE,168,2.0,2.0,28,0.00,,,0.00,Wunderground v.1.15,2013-08-05 21:20:00,
2013-08-05 16:30:00,99.4,61.5,29.83,SSE,158,1.0,1.0,29,0.00,,,0.00,Wunderground v.1.15,2013-08-05 21:30:00,
2013-08-05 16:45:00,99.2,62.3,29.83,SSE,165,1.0,2.0,30,0.00,,,0.00,Wunderground v.1.15,2013-08-05 21:45:00,
2013-08-05 16:50:00,99.0,61.2,29.83,SSE,167,1.0,1.0,29,0.00,,,0.00,Wunderground v.1.15,2013-08-05 21:50:00,
2013-08-05 17:00:00,98.5,61.7,29.83,SSE,168,2.0,2.0,30,0.00,,,0.00,Wunderground v.1.15,2013-08-05 22:00:00,
2013-08-05 17:05:00,98.2,60.5,29.83,South,171,2.0,12.0,29,0.00,,,0.00,Wunderground v.1.15,2013-08-05 22:05:00,
2013-08-05 17:10:00,97.8,60.2,29.82,South,171,2.0,2.0,29,0.00,,,0.00,Wunderground v.1.15,2013-08-05 22:10:00,
2013-08-05 17:20:00,97.8,60.2,29.82,South,175,2.0,4.0,29,0.00,,,0.00,Wunderground v.1.15,2013-08-05 22:20:00,
2013-08-05 17:25:00,97.3,60.7,29.82,South,176,2.0,4.0,30,0.00,,,0.00,Wunderground v.1.15,2013-08-05 22:25:00,
2013-08-05 17:35:00,97.1,60.5,29.82,South,176,1.0,2.0,30,0.00,,,0.00,Wunderground v.1.15,2013-08-05 22:35:00,
2013-08-05 17:40:00,97.1,60.5,29.81,South,175,1.0,3.0,30,0.00,,,0.00,Wunderground v.1.15,2013-08-05 22:40:00,
2013-08-05 17:50:00,96.8,60.3,29.81,SSE,168,2.0,2.0,30,0.00,,,0.00,Wunderground v.1.15,2013-08-05 22:50:00,
2013-08-05 17:55:00,96.6,59.1,29.81,South,171,2.0,3.0,29,0.00,,,0.00,Wunderground v.1.15,2013-08-05 22:55:00,
2013-08-05 18:10:00,96.3,58.9,29.81,South,171,1.0,3.0,29,0.00,,,0.00,Wunderground v.1.15,2013-08-05 23:10:00,
2013-08-05 18:20:00,96.1,58.7,29.81,SSE,167,1.0,1.0,29,0.00,,,0.00,Wunderground v.1.15,2013-08-05 23:20:00,
2013-08-05 18:30:00,96.1,59.7,29.81,SSE,164,1.0,1.0,30,0.00,,,0.00,Wunderground v.1.15,2013-08-05 23:30:00,
2013-08-05 18:35:00,95.9,59.5,29.81,SSE,164,1.0,1.0,30,0.00,,,0.00,Wunderground v.1.15,2013-08-05 23:35:00,
2013-08-05 18:40:00,95.9,60.4,29.81,SSE,165,1.0,2.0,31,0.00,,,0.00,Wunderground v.1.15,2013-08-05 23:40:00,
2013-08-05 18:50:00,95.6,60.1,29.80,SSE,165,1.0,1.0,31,0.00,,,0.00,Wunderground v.1.15,2013-08-05 23:50:00,
2013-08-05 18:55:00,95.4,60.0,29.80,SSE,165,1.0,1.0,31,0.00,,,0.00,Wunderground v.1.15,2013-08-05 23:55:00,
2013-08-05 19:05:00,95.1,59.7,29.80,SSE,167,1.0,1.0,31,0.00,,,0.00,Wunderground v.1.15,2013-08-06 00:05:00,
2013-08-05 19:10:00,94.9,60.4,29.80,SSE,165,1.0,1.0,32,0.00,,,0.00,Wunderground v.1.15,2013-08-06 00:10:00,
2013-08-05 19:20:00,94.7,59.4,29.80,SSE,167,1.0,1.0,31,0.00,,,0.00,Wunderground v.1.15,2013-08-06 00:20:00,
2013-08-05 19:25:00,94.5,59.2,29.80,SSE,165,1.0,1.0,31,0.00,,,0.00,Wunderground v.1.15,2013-08-06 00:25:00,
2013-08-05 19:35:00,94.0,59.7,29.80,SSE,165,0.0,0.0,32,0.00,,,0.00,Wunderground v.1.15,2013-08-06 00:35:00,
2013-08-05 19:40:00,93.8,61.2,29.80,SSE,165,0.0,0.0,34,0.00,,,0.00,Wunderground v.1.15,2013-08-06 00:40:00,
2013-08-05 19:55:00,92.9,61.2,29.80,SSE,164,1.0,1.0,35,0.00,,,0.00,Wunderground v.1.15,2013-08-06 00:55:00,
2013-08-05 20:05:00,92.5,60.9,29.79,SSE,164,0.0,0.0,35,0.00,,,0.00,Wunderground v.1.15,2013-08-06 01:05:00,
2013-08-05 20:10:00,92.3,61.5,29.80,SSE,164,0.0,0.0,36,0.00,,,0.00,Wunderground v.1.15,2013-08-06 01:10:00,
2013-08-05 20:20:00,91.6,60.9,29.80,SSE,164,0.0,0.0,36,0.00,,,0.00,Wunderground v.1.15,2013-08-06 01:20:00,
2013-08-05 20:25:00,91.2,62.0,29.80,SSE,164,0.0,0.0,38,0.00,,,0.00,Wunderground v.1.15,2013-08-06 01:25:00,
2013-08-05 20:35:00,90.5,61.4,29.80,SSE,164,0.0,0.0,38,0.00,,,0.00,Wunderground v.1.15,2013-08-06 01:35:00,
2013-08-05 20:40:00,90.3,61.2,29.81,SSE,164,0.0,0.0,38,0.00,,,0.00,Wunderground v.1.15,2013-08-06 01:40:00,
2013-08-05 20:50:00,89.9,64.4,29.81,SSE,158,4.0,4.0,43,0.00,,,0.00,Wunderground v.1.15,2013-08-06 01:50:00,
2013-08-05 20:55:00,89.9,65.7,29.81,SSE,158,3.0,5.0,45,0.00,,,0.00,Wunderground v.1.15,2013-08-06 01:55:00,
2013-08-05 21:05:00,89.5,66.6,29.81,SSE,157,1.0,2.0,47,0.00,,,0.00,Wunderground v.1.15,2013-08-06 02:05:00,
2013-08-05 21:10:00,89.0,66.2,29.81,SSE,157,1.0,6.0,47,0.00,,,0.00,Wunderground v.1.15,2013-08-06 02:10:00,
2013-08-05 21:20:00,88.6,65.8,29.81,SSE,154,3.0,3.0,47,0.00,,,0.00,Wunderground v.1.15,2013-08-06 02:20:00,
2013-08-05 21:35:00,88.0,65.8,29.82,SSE,154,1.0,3.0,48,0.00,,,0.00,Wunderground v.1.15,2013-08-06 02:35:00,
2013-08-05 21:45:00,87.6,64.9,29.82,SSE,148,4.0,4.0,47,0.00,,,0.00,Wunderground v.1.15,2013-08-06 02:45:00,
2013-08-05 21:55:00,87.4,64.7,29.83,SSE,150,3.0,3.0,47,0.00,,,0.00,Wunderground v.1.15,2013-08-06 02:55:00,
2013-08-05 22:05:00,87.0,64.9,29.83,SSE,151,3.0,6.0,48,0.00,,,0.00,Wunderground v.1.15,2013-08-06 03:05:00,
2013-08-05 22:10:00,86.7,64.7,29.83,SSE,151,3.0,3.0,48,0.00,,,0.00,Wunderground v.1.15,2013-08-06 03:10:00,
2013-08-05 22:20:00,86.1,65.3,29.84,SSE,152,4.0,7.0,50,0.00,,,0.00,Wunderground v.1.15,2013-08-06 03:20:00,
2013-08-05 22:25:00,85.9,65.7,29.84,SSE,152,5.0,7.0,51,0.00,,,0.00,Wunderground v.1.15,2013-08-06 03:25:00,
2013-08-05 22:35:00,85.5,67.0,29.85,SSE,150,4.0,4.0,54,0.00,,,0.00,Wunderground v.1.15,2013-08-06 03:35:00,
2013-08-05 22:40:00,85.3,67.3,29.85,SSE,151,3.0,3.0,55,0.00,,,0.00,Wunderground v.1.15,2013-08-06 03:40:00,
2013-08-05 22:50:00,84.7,67.3,29.85,SSE,152,2.0,2.0,56,0.00,,,0.00,Wunderground v.1.15,2013-08-06 03:50:00,
2013-08-05 22:55:00,84.5,67.6,29.84,SSE,152,2.0,2.0,57,0.00,,,0.00,Wunderground v.1.15,2013-08-06 03:55:00,
2013-08-05 23:05:00,84.1,67.7,29.84,SSE,152,3.0,5.0,58,0.00,,,0.00,Wunderground v.1.15,2013-08-06 04:05:00,
2013-08-05 23:10:00,84.0,68.1,29.84,SSE,152,2.0,2.0,59,0.00,,,0.00,Wunderground v.1.15,2013-08-06 04:10:00,
2013-08-05 23:20:00,83.6,69.2,29.84,SSE,152,2.0,2.0,62,0.00,,,0.00,Wunderground v.1.15,2013-08-06 04:20:00,
2013-08-05 23:25:00,83.4,69.5,29.85,SSE,155,3.0,3.0,63,0.00,,,0.00,Wunderground v.1.15,2013-08-06 04:25:00,
2013-08-05 23:35:00,83.0,69.6,29.85,SSE,152,3.0,6.0,64,0.00,,,0.00,Wunderground v.1.15,2013-08-06 04:35:00,
2013-08-05 23:40:00,82.8,69.8,29.85,SSE,151,3.0,3.0,65,0.00,,,0.00,Wunderground v.1.15,2013-08-06 04:40:00,
2013-08-05 23:50:00,82.6,70.1,29.85,SSE,152,2.0,8.0,66,0.00,,,0.00,Wunderground v.1.15,2013-08-06 04:50:00,
2013-08-05 23:55:00,82.4,69.9,29.85,SSE,152,2.0,8.0,66,0.00,,,0.00,Wunderground v.1.15,2013-08-06 04:55:00,